Regional Weather Roundup
Issued by NWS

Home | Current Version | Previous Version | Graphics & Text | Print | Product List | Glossary On
Versions: 1 2 3 4 5 6 7 8 9 10 11 12 13 14 15 16 17 18 19 20 21 22 23 24 25 26 27 28 29 30 31 32 33 34 35 36 37 38 39 40 41 42 43 44 45 46 47 48 49 50
000
ASUS43 KLMK 240510
RWRKY
KENTUCKY REGIONAL WEATHER ROUNDUP
NATIONAL WEATHER SERVICE LOUISVILLE KY
100 AM EDT FRI OCT 24 2014

NOTE "FAIR" INDICATES FEW OR NO CLOUDS BELOW 12,000 FEET
WITH NO SIGNIFICANT WEATHER AND/OR OBSTRUCTIONS TO VISIBILITY.

KYZ001>023-026-027-061>063-070>075-240600-
WESTERN AND SOUTH CENTRAL KENTUCKY

CITY           SKY/WX    TMP DP  RH WIND       PRES   REMARKS
PADUCAH        CLEAR     43  41  93 CALM      30.11F
HENDERSON      PTCLDY   N/A N/A N/A CALM      30.12F
OWENSBORO      CLOUDY    49  45  86 CALM      30.12F
HOPKINSVILLE   CLOUDY    49  49  99 SE2       30.10F
BOWLING GREEN  CLOUDY    47  44  90 CALM      30.12F
GLASGOW        MOCLDY    46  46 100 CALM      30.11F
$$

KYZ024-025-028>034-038-045-046-053-240600-
NORTH CENTRAL KENTUCKY

CITY           SKY/WX    TMP DP  RH WIND       PRES   REMARKS
LOUISVILLE/SDF MOCLDY    50  43  77 SW7       30.12S
LOUISVILLE/LOU PTCLDY    47  43  86 CALM      30.13S
FORT KNOX      MOCLDY    42  40  93 CALM      30.11R
$$

KYZ035>037-039>044-047>052-055>060-089>105-240600-
NORTHEAST KENTUCKY

CITY           SKY/WX    TMP DP  RH WIND       PRES   REMARKS
LEXINGTON      MOCLDY    48  42  80 CALM      30.11F
COVINGTON      CLOUDY    44  39  82 CALM      30.11F
FRANKFORT      PTCLDY    43  40  89 CALM      30.10F
$$

KYZ054-064>069-076>088-106>120-240600-
SOUTHEAST KENTUCKY

CITY           SKY/WX    TMP DP  RH WIND       PRES   REMARKS
JACKSON        MOCLDY    47  40  76 CALM      30.12F
LONDON         MOCLDY    44  40  85 CALM      30.11F
SOMERSET       MOCLDY    41  41 100 CALM      30.13S
MIDDLESBORO    MOCLDY    42  41  97 CALM      30.14S
MONTICELLO     MOCLDY    40  40 100 CALM      30.14S FOG
$$




USA.gov is the U.S. government's official web portal to all federal, state and local government web resources and services.